Location: Newark
(3.1333°N, 101.7000°E)
Time: 02:13:46
(UTC+00:00)

N. Korean satellite - Visible Passes

Search period start: 30 September 2020 00:00
Search period end: 10 October 2020 00:00
Orbit: 455 x 503 km, 97.2° (Epoch: 29 September)

Date Brightness Start Highest point End Pass type
(mag) Time Alt. Az. Time Alt. Az. Time Alt. Az.
30 Sep 7.6 22:11:38 10° NNE 22:14:59 48° E 22:18:18 10° S visible
01 Oct 9.6 21:46:39 10° ENE 21:49:00 17° E 21:51:18 10° SE visible
03 Oct 6.4 22:26:40 10° N 22:30:07 85° WNW 22:33:32 10° SSW visible
04 Oct 8.6 22:01:03 10° NE 22:04:06 30° E 22:07:09 10° SSE visible
05 Oct 10.1 21:36:57 10° E 21:38:05 11° E 21:39:12 10° ESE visible
07 Oct 7.1 22:15:48 10° NNE 22:19:11 59° E 22:22:33 10° S visible
08 Oct 9.4 21:50:35 10° NE 21:53:09 20° E 21:55:43 10° SSE visible
